Location: Mount Carleton Provincial Park
(47.4176°N, 66.8949°W)
Time: 19:01:25
(UTC-03:00)

ISS - Visible Passes

Search period start: 26 July 2021 00:00
Search period end: 05 August 2021 00:00
Orbit: 419 x 421 km, 51.6° (Epoch: 26 July)

Date Brightness Start Highest point End Pass type
(mag) Time Alt. Az. Time Alt. Az. Time Alt. Az.
26 Jul -1.7 00:23:17 10° W 00:24:45 20° W 00:24:45 20° W visible
26 Jul -3.0 21:58:54 10° WNW 22:02:13 51° NNE 22:05:32 10° E visible
26 Jul -3.2 23:35:48 10° WNW 23:38:58 43° SW 23:38:58 43° SW visible
27 Jul -3.7 22:48:25 10° WNW 22:51:47 66° SSW 22:53:13 31° SE visible
28 Jul -3.8 22:01:05 10° WNW 22:04:29 87° NNE 22:07:30 12° ESE visible
28 Jul -1.7 23:38:29 10° W 23:40:27 18° SW 23:40:27 18° SW visible
29 Jul -2.4 22:50:49 10° W 22:53:46 28° SW 22:54:47 24° S visible
30 Jul -3.0 22:03:19 10° WNW 22:06:33 43° SW 22:09:09 14° SE visible
31 Jul -1.3 22:54:11 10° WSW 22:55:32 12° SW 22:56:33 11° SSW visible
01 Aug -1.6 22:05:59 10° W 22:08:25 19° SW 22:10:50 10° S visible
